Calgary / Springba, Alberta

12:11 AM MST on December 08, 2016 (GMT -0700)
Springbank

Weather History for CYBW - August, 2014

Change the Weather History Date:

Saturday, August 30, 2014

  Actual Average Record
Temperature  
Mean Temperature 53 °F -  
Max Temperature 64 °F 59 °F 86 °F (1996)
Min Temperature 42 °F 35 °F 30 °F (2012)
Degree Days  
Heating Degree Days 12    
Growing Degree Days 3 (Base 50)    
Moisture  
Dew Point 41 °F    
Average Humidity 68    
Maximum Humidity 100    
Minimum Humidity 37    
Precipitation  
Precipitation 0.00 in - - ()
Sea Level Pressure  
Sea Level Pressure 29.77 in    
Wind  
Wind Speed 8 mph ()    
Max Wind Speed 17 mph    
Max Gust Speed -    
Visibility 9.0 miles    
Events Rain , Thunderstorm    
Averages and records for this station are not official NWS values.
T = Trace of Precipitation, MM = Missing Value Source: Averaged Metar Reports

Daily Weather History Graph

Daily Weather History Graph

Search for Another Location

Airport or City:

Trip Planner

Search our weather history database for the weather conditions in past years. The results will help you decide how hot, cold, wet, or windy it might be!

Date:

Astronomy

Aug. 30, 2014 Rise Set
Actual Time 6:47 AM MDT 8:27 PM MDT
Civil Twilight 6:13 AM MDT 9:01 PM MDT
Nautical Twilight 5:30 AM MDT 9:44 PM MDT
Astronomical Twilight 4:42 AM MDT 10:31 PM MDT
Moon 12:15 PM MDT (8/30) 10:26 PM MDT (8/30)
Length of Visible Light 14h 48m
Length of Day
13h 39m
Waxing Crescent, 23% of the Moon is Illuminated
Aug 30
Waxing Crescent
Sep 2
First Quarter
Sep 8
Full
Sep 15
Last Quarter
Sep 24
New

Hourly Weather History & Observations

Time (MDT) Temp. Windchill Dew Point Humidity Pressure Visibility Wind Dir Wind Speed Gust Speed Precip Events Conditions
12:00 AM 51.8 °F - 44.6 °F 76% 29.74 in 9.0 mi NW 12.7 mph - N/A   Overcast
1:00 AM 48.2 °F - 42.8 °F 82% 29.75 in 9.0 mi West 11.5 mph - N/A   Clear
2:00 AM 46.4 °F 41.5 °F 42.8 °F 87% 29.76 in 9.0 mi NW 10.4 mph - N/A   Clear
3:00 AM 44.6 °F 38.8 °F 42.8 °F 93% 29.76 in 9.0 mi NW 11.5 mph - N/A   Scattered Clouds
4:00 AM 48.2 °F - 44.6 °F 87% 29.76 in 9.0 mi NNW 10.4 mph - N/A   Clear
5:00 AM 46.4 °F 41.9 °F 42.8 °F 87% 29.78 in 9.0 mi NNW 9.2 mph - N/A   Clear
6:00 AM 42.8 °F 38.6 °F 41.0 °F 93% 29.79 in 9.0 mi NW 6.9 mph - N/A   Clear
7:00 AM 42.8 °F 39.3 °F 41.0 °F 93% 29.80 in 9.0 mi NW 5.8 mph - N/A   Partly Cloudy
8:00 AM 42.8 °F 39.3 °F 42.8 °F 100% 29.81 in 9.0 mi NW 5.8 mph - N/A   Mostly Cloudy
9:00 AM 50.0 °F - 44.6 °F 82% 29.83 in 9.0 mi West 3.5 mph - N/A   Overcast
10:00 AM 51.8 °F - 44.6 °F 76% 29.83 in 9.0 mi SSW 3.5 mph - N/A   Overcast
11:00 AM 55.4 °F - 42.8 °F 63% 29.81 in 9.0 mi Calm Calm - N/A   Overcast
12:00 PM 57.2 °F - 42.8 °F 59% 29.80 in 9.0 mi ESE 3.5 mph - N/A   Mostly Cloudy
1:00 PM 60.8 °F - 44.6 °F 55% 29.78 in 9.0 mi SSE 4.6 mph - N/A   Clear
2:00 PM 60.8 °F - 41.0 °F 48% 29.78 in 9.0 mi Variable 4.6 mph - N/A   Mostly Cloudy
3:00 PM 60.8 °F - 41.0 °F 48% 29.76 in 9.0 mi WNW 4.6 mph - N/A   Clear
4:00 PM 64.4 °F - 41.0 °F 42% 29.72 in 9.0 mi South 5.8 mph - N/A   Partly Cloudy
4:20 PM 64.4 °F - 37.4 °F 37% 29.72 in 9.0 mi West 17.3 mph - N/A   Mostly Cloudy
5:00 PM 64.4 °F - 37.4 °F 37% 29.72 in 9.0 mi WNW 12.7 mph - N/A   Clear
6:00 PM 64.4 °F - 39.2 °F 40% 29.73 in 9.0 mi WNW 9.2 mph - N/A   Clear
7:00 PM 62.6 °F - 39.2 °F 42% 29.74 in 9.0 mi NW 9.2 mph - N/A   Clear
8:00 PM 55.4 °F - 39.2 °F 54% 29.76 in 9.0 mi NNW 3.5 mph - N/A   Clear
9:00 PM 51.8 °F - 39.2 °F 62% 29.78 in 9.0 mi East 3.5 mph - N/A   Scattered Clouds
10:19 PM 50.0 °F - 39.2 °F 66% 29.80 in 9.0 mi NE 9.2 mph - N/A Thunderstorm Thunderstorm
10:28 PM 50.0 °F - 39.2 °F 66% 29.79 in 9.0 mi NNE 10.4 mph - N/A Rain , Thunderstorm Light Thunderstorms and Rain
10:34 PM 50.0 °F - 39.2 °F 66% 29.79 in 9.0 mi NNE 11.5 mph - N/A Rain Light Rain
10:42 PM 48.2 °F - 41.0 °F 76% 29.79 in 9.0 mi NNE 9.2 mph - N/A   Mostly Cloudy
11:00 PM 48.2 °F - 41.0 °F 76% 29.80 in 9.0 mi East 6.9 mph - N/A   Partly Cloudy